Time,TemperatureF,DewpointF,PressureIn,WindDirection,WindDirectionDegrees,WindSpeedMPH,WindSpeedGustMPH,Humidity,HourlyPrecipIn,Conditions,Clouds,dailyrainin,SoftwareType,DateUTC
2013-02-28 00:00:00,42.8,33.0,29.62,NW,321,0.0,5.0,68,0.00,,,0.00,Wunderground v.1.15,2013-02-28 05:00:00,
2013-02-28 00:02:00,42.7,32.5,29.62,NW,321,0.0,5.0,67,0.00,,,0.00,Wunderground v.1.15,2013-02-28 05:02:00,
2013-02-28 00:06:00,42.8,32.6,29.61,East,95,0.0,5.0,67,0.00,,,0.00,Wunderground v.1.15,2013-02-28 05:06:00,
2013-02-28 00:08:00,42.9,33.1,29.61,East,95,0.0,5.0,68,0.00,,,0.00,Wunderground v.1.15,2013-02-28 05:08:00,
2013-02-28 00:14:00,43.0,32.8,29.61,East,101,0.0,5.0,67,0.00,,,0.00,Wunderground v.1.15,2013-02-28 05:14:00,
2013-02-28 00:20:00,43.2,33.0,29.61,SE,142,0.0,5.0,67,0.00,,,0.00,Wunderground v.1.15,2013-02-28 05:20:00,
2013-02-28 00:26:00,43.2,33.0,29.62,ESE,117,0.0,5.0,67,0.00,,,0.00,Wunderground v.1.15,2013-02-28 05:26:00,
2013-02-28 00:32:00,43.3,32.7,29.61,NW,319,0.0,5.0,66,0.00,,,0.00,Wunderground v.1.15,2013-02-28 05:32:00,
2013-02-28 00:38:00,43.5,32.9,29.61,SSE,167,1.0,5.0,66,0.00,,,0.00,Wunderground v.1.15,2013-02-28 05:38:00,
2013-02-28 00:44:00,43.6,33.0,29.61,SSW,192,1.0,5.0,66,0.00,,,0.00,Wunderground v.1.15,2013-02-28 05:44:00,
2013-02-28 00:50:00,43.7,33.1,29.60,SSW,198,1.0,5.0,66,0.00,,,0.00,Wunderground v.1.15,2013-02-28 05:50:00,
2013-02-28 00:56:00,43.7,32.7,29.60,West,275,2.0,8.0,65,0.00,,,0.00,Wunderground v.1.15,2013-02-28 05:56:00,
2013-02-28 01:02:00,43.8,32.8,29.61,SSE,149,2.0,4.0,65,0.00,,,0.00,Wunderground v.1.15,2013-02-28 06:02:00,
2013-02-28 01:08:00,43.7,32.7,29.61,SSE,148,1.0,9.0,65,0.00,,,0.00,Wunderground v.1.15,2013-02-28 06:08:00,
2013-02-28 01:14:00,43.6,32.6,29.61,NNW,342,1.0,9.0,65,0.00,,,0.00,Wunderground v.1.15,2013-02-28 06:14:00,
2013-02-28 01:20:00,43.5,32.5,29.61,South,189,1.0,1.0,65,0.00,,,0.00,Wunderground v.1.15,2013-02-28 06:20:00,
2013-02-28 01:26:00,43.4,32.8,29.61,WSW,248,1.0,9.0,66,0.00,,,0.00,Wunderground v.1.15,2013-02-28 06:26:00,
2013-02-28 01:32:00,43.4,32.8,29.61,West,269,0.0,9.0,66,0.00,,,0.00,Wunderground v.1.15,2013-02-28 06:32:00,
2013-02-28 01:38:00,43.4,32.8,29.61,West,269,0.0,9.0,66,0.00,,,0.00,Wunderground v.1.15,2013-02-28 06:38:00,
2013-02-28 01:44:00,43.3,33.1,29.61,West,269,0.0,9.0,67,0.00,,,0.00,Wunderground v.1.15,2013-02-28 06:44:00,
2013-02-28 01:50:00,43.1,32.9,29.61,WNW,293,1.0,1.0,67,0.00,,,0.00,Wunderground v.1.15,2013-02-28 06:50:00,
2013-02-28 01:56:00,43.0,32.8,29.61,ENE,74,0.0,9.0,67,0.00,,,0.00,Wunderground v.1.15,2013-02-28 06:56:00,
2013-02-28 02:02:00,42.8,33.3,29.61,ENE,70,0.0,9.0,69,0.00,,,0.00,Wunderground v.1.15,2013-02-28 07:02:00,
2013-02-28 02:08:00,42.3,33.6,29.61,ENE,70,0.0,9.0,71,0.00,,,0.00,Wunderground v.1.15,2013-02-28 07:08:00,
2013-02-28 02:14:00,41.9,33.5,29.61,ENE,66,0.0,9.0,72,0.00,,,0.00,Wunderground v.1.15,2013-02-28 07:14:00,
2013-02-28 02:20:00,41.6,33.2,29.61,ENE,66,0.0,9.0,72,0.00,,,0.00,Wunderground v.1.15,2013-02-28 07:20:00,
2013-02-28 02:26:00,41.3,33.0,29.61,ENE,66,0.0,9.0,72,0.00,,,0.00,Wunderground v.1.15,2013-02-28 07:26:00,
2013-02-28 02:32:00,41.1,32.8,29.61,ENE,66,0.0,9.0,72,0.00,,,0.00,Wunderground v.1.15,2013-02-28 07:32:00,
2013-02-28 02:38:00,41.2,33.2,29.61,ENE,66,0.0,9.0,73,0.00,,,0.00,Wunderground v.1.15,2013-02-28 07:38:00,
2013-02-28 02:44:00,41.0,33.3,29.61,ENE,66,0.0,9.0,74,0.00,,,0.00,Wunderground v.1.15,2013-02-28 07:44:00,
2013-02-28 02:50:00,41.0,32.7,29.61,SSW,196,0.0,9.0,72,0.00,,,0.00,Wunderground v.1.15,2013-02-28 07:50:00,
2013-02-28 02:56:00,41.1,33.1,29.60,West,281,0.0,9.0,73,0.00,,,0.00,Wunderground v.1.15,2013-02-28 07:56:00,
2013-02-28 03:02:00,41.0,32.7,29.60,West,281,0.0,3.0,72,0.00,,,0.00,Wunderground v.1.15,2013-02-28 08:02:00,
2013-02-28 03:08:00,41.1,32.4,29.60,WNW,298,0.0,3.0,71,0.00,,,0.00,Wunderground v.1.15,2013-02-28 08:08:00,
2013-02-28 03:14:00,41.6,32.2,29.60,SW,218,1.0,3.0,69,0.00,,,0.00,Wunderground v.1.15,2013-02-28 08:14:00,
2013-02-28 03:20:00,42.0,32.2,29.61,WSW,256,1.0,1.0,68,0.00,,,0.00,Wunderground v.1.15,2013-02-28 08:20:00,
2013-02-28 03:26:00,42.1,32.3,29.60,West,275,0.0,3.0,68,0.00,,,0.00,Wunderground v.1.15,2013-02-28 08:26:00,
2013-02-28 03:32:00,42.1,32.7,29.61,West,275,0.0,3.0,69,0.00,,,0.00,Wunderground v.1.15,2013-02-28 08:32:00,
2013-02-28 03:38:00,42.1,32.3,29.61,WSW,243,1.0,4.0,68,0.00,,,0.00,Wunderground v.1.15,2013-02-28 08:38:00,
2013-02-28 03:44:00,42.1,31.6,29.61,WSW,254,1.0,3.0,66,0.00,,,0.00,Wunderground v.1.15,2013-02-28 08:44:00,
2013-02-28 03:50:00,42.2,30.9,29.61,WNW,282,1.0,1.0,64,0.00,,,0.00,Wunderground v.1.15,2013-02-28 08:50:00,
2013-02-28 03:56:00,42.2,30.5,29.61,WNW,289,1.0,3.0,63,0.00,,,0.00,Wunderground v.1.15,2013-02-28 08:56:00,
2013-02-28 04:02:00,42.2,30.1,29.61,West,281,0.0,9.0,62,0.00,,,0.00,Wunderground v.1.15,2013-02-28 09:02:00,
2013-02-28 04:08:00,42.2,29.3,29.61,WNW,294,0.0,9.0,60,0.00,,,0.00,Wunderground v.1.15,2013-02-28 09:08:00,
2013-02-28 04:14:00,42.2,28.9,29.61,WNW,294,0.0,9.0,59,0.00,,,0.00,Wunderground v.1.15,2013-02-28 09:14:00,
2013-02-28 04:20:00,42.2,28.5,29.61,West,273,1.0,1.0,58,0.00,,,0.00,Wunderground v.1.15,2013-02-28 09:20:00,
2013-02-28 04:26:00,42.3,28.1,29.61,West,265,2.0,9.0,57,0.00,,,0.00,Wunderground v.1.15,2013-02-28 09:26:00,
2013-02-28 04:32:00,42.3,28.6,29.62,West,273,2.0,9.0,58,0.00,,,0.00,Wunderground v.1.15,2013-02-28 09:32:00,
2013-02-28 04:38:00,42.2,28.5,29.62,WNW,292,1.0,9.0,58,0.00,,,0.00,Wunderground v.1.15,2013-02-28 09:38:00,
2013-02-28 04:44:00,42.0,27.9,29.62,WNW,286,1.0,9.0,57,0.00,,,0.00,Wunderground v.1.15,2013-02-28 09:44:00,
2013-02-28 04:50:00,41.8,28.5,29.62,West,263,1.0,9.0,59,0.00,,,0.00,Wunderground v.1.15,2013-02-28 09:50:00,
2013-02-28 04:56:00,41.7,28.0,29.63,West,272,3.0,9.0,58,0.00,,,0.00,Wunderground v.1.15,2013-02-28 09:56:00,
2013-02-28 05:02:00,41.6,27.9,29.63,WSW,250,2.0,9.0,58,0.00,,,0.00,Wunderground v.1.15,2013-02-28 10:02:00,
2013-02-28 05:08:00,41.4,27.7,29.63,West,263,1.0,9.0,58,0.00,,,0.00,Wunderground v.1.15,2013-02-28 10:08:00,
2013-02-28 05:14:00,41.3,27.6,29.63,ENE,78,0.0,9.0,58,0.00,,,0.00,Wunderground v.1.15,2013-02-28 10:14:00,
2013-02-28 05:20:00,41.0,28.2,29.63,SE,146,0.0,9.0,60,0.00,,,0.00,Wunderground v.1.15,2013-02-28 10:20:00,
2013-02-28 05:26:00,40.7,27.5,29.63,WNW,292,0.0,9.0,59,0.00,,,0.00,Wunderground v.1.15,2013-02-28 10:26:00,
2013-02-28 05:32:00,40.5,27.7,29.64,West,267,0.0,9.0,60,0.00,,,0.00,Wunderground v.1.15,2013-02-28 10:32:00,
2013-02-28 05:38:00,40.3,27.1,29.63,West,268,0.0,9.0,59,0.00,,,0.00,Wunderground v.1.15,2013-02-28 10:38:00,
2013-02-28 05:44:00,40.1,27.3,29.64,West,268,0.0,9.0,60,0.00,,,0.00,Wunderground v.1.15,2013-02-28 10:44:00,
2013-02-28 05:50:00,39.9,27.1,29.64,West,268,0.0,9.0,60,0.00,,,0.00,Wunderground v.1.15,2013-02-28 10:50:00,
2013-02-28 05:56:00,39.8,27.0,29.64,West,267,0.0,9.0,60,0.00,,,0.00,Wunderground v.1.15,2013-02-28 10:56:00,
2013-02-28 06:02:00,39.6,26.8,29.64,West,267,0.0,10.0,60,0.00,,,0.00,Wunderground v.1.15,2013-02-28 11:02:00,
2013-02-28 06:08:00,39.4,26.7,29.64,SE,142,0.0,10.0,60,0.00,,,0.00,Wunderground v.1.15,2013-02-28 11:08:00,
2013-02-28 06:14:00,39.3,26.6,29.64,SE,142,0.0,10.0,60,0.00,,,0.00,Wunderground v.1.15,2013-02-28 11:14:00,
2013-02-28 06:20:00,39.1,26.8,29.65,NE,46,0.0,10.0,61,0.00,,,0.00,Wunderground v.1.15,2013-02-28 11:20:00,
2013-02-28 06:26:00,38.9,26.6,29.65,South,180,0.0,10.0,61,0.00,,,0.00,Wunderground v.1.15,2013-02-28 11:26:00,
2013-02-28 06:32:00,38.7,26.4,29.65,SE,126,0.0,10.0,61,0.00,,,0.00,Wunderground v.1.15,2013-02-28 11:32:00,
2013-02-28 06:38:00,38.8,26.5,29.65,SSE,161,0.0,10.0,61,0.00,,,0.00,Wunderground v.1.15,2013-02-28 11:38:00,
2013-02-28 06:44:00,38.7,26.8,29.65,SSE,150,0.0,10.0,62,0.00,,,0.00,Wunderground v.1.15,2013-02-28 11:44:00,
2013-02-28 06:50:00,38.5,26.6,29.65,SSE,150,0.0,10.0,62,0.00,,,0.00,Wunderground v.1.15,2013-02-28 11:50:00,
2013-02-28 06:56:00,38.2,26.7,29.65,SSW,203,0.0,10.0,63,0.00,,,0.00,Wunderground v.1.15,2013-02-28 11:56:00,
2013-02-28 07:02:00,38.0,26.9,29.65,South,178,1.0,6.0,64,0.00,,,0.00,Wunderground v.1.15,2013-02-28 12:02:00,
2013-02-28 07:08:00,38.0,26.5,29.65,West,259,1.0,6.0,63,0.00,,,0.00,Wunderground v.1.15,2013-02-28 12:08:00,
2013-02-28 07:14:00,38.2,26.3,29.65,WSW,244,1.0,6.0,62,0.00,,,0.00,Wunderground v.1.15,2013-02-28 12:14:00,
2013-02-28 07:20:00,38.4,26.5,29.65,SSW,202,0.0,6.0,62,0.00,,,0.00,Wunderground v.1.15,2013-02-28 12:20:00,
2013-02-28 07:26:00,38.4,26.5,29.65,NW,317,0.0,6.0,62,0.00,,,0.00,Wunderground v.1.15,2013-02-28 12:26:00,
2013-02-28 07:32:00,38.4,26.5,29.65,WNW,294,1.0,6.0,62,0.00,,,0.00,Wunderground v.1.15,2013-02-28 12:32:00,
2013-02-28 07:38:00,38.3,26.8,29.65,West,267,1.0,6.0,63,0.00,,,0.00,Wunderground v.1.15,2013-02-28 12:38:00,
2013-02-28 07:44:00,38.3,26.8,29.65,SE,127,0.0,6.0,63,0.00,,,0.00,Wunderground v.1.15,2013-02-28 12:44:00,
2013-02-28 07:50:00,38.3,26.8,29.66,WNW,288,0.0,6.0,63,0.00,,,0.00,Wunderground v.1.15,2013-02-28 12:50:00,
2013-02-28 07:56:00,38.4,26.9,29.65,WSW,252,0.0,6.0,63,0.00,,,0.00,Wunderground v.1.15,2013-02-28 12:56:00,
2013-02-28 08:02:00,38.5,27.4,29.66,WNW,290,1.0,8.0,64,0.00,,,0.00,Wunderground v.1.15,2013-02-28 13:02:00,
2013-02-28 08:08:00,38.7,27.6,29.65,West,267,1.0,8.0,64,0.00,,,0.00,Wunderground v.1.15,2013-02-28 13:08:00,
2013-02-28 08:14:00,38.9,27.8,29.65,West,269,0.0,8.0,64,0.00,,,0.00,Wunderground v.1.15,2013-02-28 13:14:00,
2013-02-28 08:20:00,38.9,27.8,29.66,West,269,0.0,8.0,64,0.00,,,0.00,Wunderground v.1.15,2013-02-28 13:20:00,
2013-02-28 08:26:00,39.1,27.6,29.66,SSE,163,0.0,8.0,63,0.00,,,0.00,Wunderground v.1.15,2013-02-28 13:26:00,
2013-02-28 08:32:00,39.3,28.1,29.66,SE,139,0.0,8.0,64,0.00,,,0.00,Wunderground v.1.15,2013-02-28 13:32:00,
2013-02-28 08:38:00,39.5,28.3,29.66,SSW,192,0.0,8.0,64,0.00,,,0.00,Wunderground v.1.15,2013-02-28 13:38:00,
2013-02-28 08:44:00,39.7,28.9,29.66,South,191,0.0,8.0,65,0.00,,,0.00,Wunderground v.1.15,2013-02-28 13:44:00,
2013-02-28 08:50:00,39.9,27.9,29.66,West,259,0.0,8.0,62,0.00,,,0.00,Wunderground v.1.15,2013-02-28 13:50:00,
2013-02-28 08:56:00,40.1,28.1,29.66,ENE,63,0.0,8.0,62,0.00,,,0.00,Wunderground v.1.15,2013-02-28 13:56:00,
2013-02-28 09:02:00,40.2,27.8,29.65,West,281,0.0,6.0,61,0.00,,,0.00,Wunderground v.1.15,2013-02-28 14:02:00,
2013-02-28 09:08:00,40.3,27.9,29.65,West,281,0.0,6.0,61,0.00,,,0.00,Wunderground v.1.15,2013-02-28 14:08:00,
2013-02-28 09:14:00,40.4,27.6,29.65,South,169,1.0,6.0,60,0.00,,,0.00,Wunderground v.1.15,2013-02-28 14:14:00,
2013-02-28 09:20:00,40.4,27.6,29.65,East,88,1.0,6.0,60,0.00,,,0.00,Wunderground v.1.15,2013-02-28 14:20:00,
2013-02-28 09:26:00,40.6,27.4,29.65,South,184,0.0,6.0,59,0.00,,,0.00,Wunderground v.1.15,2013-02-28 14:26:00,
2013-02-28 09:32:00,40.7,27.9,29.65,WSW,246,0.0,6.0,60,0.00,,,0.00,Wunderground v.1.15,2013-02-28 14:32:00,
2013-02-28 09:38:00,40.8,27.2,29.65,West,261,1.0,6.0,58,0.00,,,0.00,Wunderground v.1.15,2013-02-28 14:38:00,
2013-02-28 09:44:00,40.9,27.2,29.66,West,271,1.0,6.0,58,0.00,,,0.00,Wunderground v.1.15,2013-02-28 14:44:00,
2013-02-28 09:50:00,41.0,27.3,29.66,ESE,105,2.0,2.0,58,0.00,,,0.00,Wunderground v.1.15,2013-02-28 14:50:00,
2013-02-28 09:56:00,41.2,27.9,29.66,SSW,202,2.0,6.0,59,0.00,,,0.00,Wunderground v.1.15,2013-02-28 14:56:00,
2013-02-28 10:02:00,41.2,27.1,29.66,SW,214,3.0,7.0,57,0.00,,,0.00,Wunderground v.1.15,2013-02-28 15:02:00,
2013-02-28 10:08:00,41.3,26.8,29.66,WSW,252,3.0,7.0,56,0.00,,,0.00,Wunderground v.1.15,2013-02-28 15:08:00,
2013-02-28 10:14:00,41.3,27.2,29.66,SW,216,2.0,7.0,57,0.00,,,0.00,Wunderground v.1.15,2013-02-28 15:14:00,
2013-02-28 10:20:00,41.3,26.8,29.66,WNW,286,3.0,7.0,56,0.00,,,0.00,Wunderground v.1.15,2013-02-28 15:20:00,
2013-02-28 10:26:00,41.3,27.6,29.66,SW,231,4.0,7.0,58,0.00,,,0.00,Wunderground v.1.15,2013-02-28 15:26:00,
2013-02-28 10:32:00,41.4,27.7,29.66,SSE,154,1.0,7.0,58,0.00,,,0.00,Wunderground v.1.15,2013-02-28 15:32:00,
2013-02-28 10:38:00,41.6,27.9,29.66,West,263,2.0,7.0,58,0.00,,,0.00,Wunderground v.1.15,2013-02-28 15:38:00,
2013-02-28 10:44:00,41.6,27.5,29.66,SW,232,3.0,7.0,57,0.00,,,0.00,Wunderground v.1.15,2013-02-28 15:44:00,
2013-02-28 10:52:00,41.6,27.9,29.66,West,261,4.0,7.0,58,0.00,,,0.00,Wunderground v.1.15,2013-02-28 15:52:00,
2013-02-28 10:58:00,41.9,28.2,29.66,West,274,3.0,7.0,58,0.00,,,0.00,Wunderground v.1.15,2013-02-28 15:58:00,
2013-02-28 11:04:00,41.9,28.2,29.66,SE,136,3.0,15.0,58,0.00,,,0.00,Wunderground v.1.15,2013-02-28 16:04:00,
2013-02-28 11:10:00,42.0,28.3,29.66,South,189,3.0,3.0,58,0.00,,,0.00,Wunderground v.1.15,2013-02-28 16:10:00,
2013-02-28 11:16:00,42.0,27.9,29.66,WSW,250,3.0,15.0,57,0.00,,,0.00,Wunderground v.1.15,2013-02-28 16:16:00,
2013-02-28 11:22:00,42.0,27.9,29.66,WNW,295,4.0,15.0,57,0.00,,,0.00,Wunderground v.1.15,2013-02-28 16:22:00,
2013-02-28 11:28:00,42.0,27.9,29.66,West,275,4.0,15.0,57,0.00,,,0.00,Wunderground v.1.15,2013-02-28 16:28:00,
2013-02-28 11:34:00,41.9,27.3,29.66,South,183,3.0,15.0,56,0.00,,,0.00,Wunderground v.1.15,2013-02-28 16:34:00,
2013-02-28 11:40:00,42.0,27.4,29.66,WNW,303,3.0,3.0,56,0.00,,,0.00,Wunderground v.1.15,2013-02-28 16:40:00,
2013-02-28 11:46:00,42.1,27.5,29.66,WSW,250,4.0,15.0,56,0.00,,,0.00,Wunderground v.1.15,2013-02-28 16:46:00,
2013-02-28 11:52:00,42.4,27.4,29.66,SSW,192,3.0,15.0,55,0.00,,,0.00,Wunderground v.1.15,2013-02-28 16:52:00,
2013-02-28 11:58:00,42.8,27.3,29.66,WNW,301,3.0,15.0,54,0.00,,,0.00,Wunderground v.1.15,2013-02-28 16:58:00,
2013-02-28 12:04:00,42.9,27.4,29.66,NW,318,3.0,13.0,54,0.00,,,0.00,Wunderground v.1.15,2013-02-28 17:04:00,
2013-02-28 12:10:00,43.0,27.0,29.66,WSW,242,3.0,13.0,53,0.00,,,0.00,Wunderground v.1.15,2013-02-28 17:10:00,
2013-02-28 12:16:00,42.7,26.7,29.66,West,269,3.0,13.0,53,0.00,,,0.00,Wunderground v.1.15,2013-02-28 17:16:00,
2013-02-28 12:22:00,42.0,27.9,29.67,SW,218,5.0,13.0,57,0.00,,,0.00,Wunderground v.1.15,2013-02-28 17:22:00,
2013-02-28 12:28:00,41.6,27.9,29.66,WNW,294,5.0,13.0,58,0.00,,,0.00,Wunderground v.1.15,2013-02-28 17:28:00,
2013-02-28 12:34:00,41.4,27.7,29.66,West,262,4.0,13.0,58,0.00,,,0.00,Wunderground v.1.15,2013-02-28 17:34:00,
2013-02-28 12:40:00,41.4,27.7,29.66,SSE,150,3.0,3.0,58,0.00,,,0.00,Wunderground v.1.15,2013-02-28 17:40:00,
2013-02-28 12:46:00,41.0,27.8,29.66,WNW,282,3.0,13.0,59,0.00,,,0.00,Wunderground v.1.15,2013-02-28 17:46:00,
2013-02-28 12:52:00,40.9,27.7,29.65,North,5,2.0,13.0,59,0.00,,,0.00,Wunderground v.1.15,2013-02-28 17:52:00,
2013-02-28 12:58:00,40.9,28.1,29.65,WNW,290,2.0,13.0,60,0.00,,,0.00,Wunderground v.1.15,2013-02-28 17:58:00,
2013-02-28 13:04:00,41.0,27.8,29.65,East,94,2.0,15.0,59,0.00,,,0.00,Wunderground v.1.15,2013-02-28 18:04:00,
2013-02-28 13:10:00,41.3,28.0,29.64,West,261,2.0,15.0,59,0.00,,,0.00,Wunderground v.1.15,2013-02-28 18:10:00,
2013-02-28 13:16:00,41.5,27.4,29.64,WNW,300,2.0,15.0,57,0.00,,,0.00,Wunderground v.1.15,2013-02-28 18:16:00,
2013-02-28 13:22:00,41.7,27.1,29.64,SW,218,1.0,15.0,56,0.00,,,0.00,Wunderground v.1.15,2013-02-28 18:22:00,
2013-02-28 13:28:00,42.2,28.0,29.64,WNW,297,1.0,15.0,57,0.00,,,0.00,Wunderground v.1.15,2013-02-28 18:28:00,
2013-02-28 13:34:00,42.6,27.1,29.64,West,267,1.0,15.0,54,0.00,,,0.00,Wunderground v.1.15,2013-02-28 18:34:00,
2013-02-28 13:40:00,42.8,26.4,29.64,WNW,286,1.0,1.0,52,0.00,,,0.00,Wunderground v.1.15,2013-02-28 18:40:00,
2013-02-28 13:46:00,42.9,25.5,29.64,West,265,2.0,15.0,50,0.00,,,0.00,Wunderground v.1.15,2013-02-28 18:46:00,
2013-02-28 13:52:00,43.1,25.2,29.64,West,275,2.0,15.0,49,0.00,,,0.00,Wunderground v.1.15,2013-02-28 18:52:00,
2013-02-28 13:58:00,43.2,25.3,29.64,WNW,293,2.0,15.0,49,0.00,,,0.00,Wunderground v.1.15,2013-02-28 18:58:00,
2013-02-28 14:04:00,43.6,26.2,29.64,West,273,1.0,10.0,50,0.00,,,0.00,Wunderground v.1.15,2013-02-28 19:04:00,
2013-02-28 14:10:00,43.6,24.7,29.64,SW,219,3.0,3.0,47,0.00,,,0.00,Wunderground v.1.15,2013-02-28 19:10:00,
2013-02-28 14:16:00,43.4,24.5,29.64,WNW,295,3.0,10.0,47,0.00,,,0.00,Wunderground v.1.15,2013-02-28 19:16:00,
2013-02-28 14:22:00,43.4,25.0,29.64,North,5,3.0,3.0,48,0.00,,,0.00,Wunderground v.1.15,2013-02-28 19:22:00,
2013-02-28 14:28:00,43.5,25.1,29.64,SSE,150,2.0,10.0,48,0.00,,,0.00,Wunderground v.1.15,2013-02-28 19:28:00,
2013-02-28 14:34:00,43.6,24.2,29.64,WNW,288,2.0,8.0,46,0.00,,,0.00,Wunderground v.1.15,2013-02-28 19:34:00,
2013-02-28 14:40:00,43.6,24.2,29.64,NW,311,4.0,4.0,46,0.00,,,0.00,Wunderground v.1.15,2013-02-28 19:40:00,
2013-02-28 14:46:00,43.7,24.8,29.64,WNW,284,2.0,10.0,47,0.00,,,0.00,Wunderground v.1.15,2013-02-28 19:46:00,
2013-02-28 14:52:00,43.8,25.4,29.64,SSW,201,2.0,10.0,48,0.00,,,0.00,Wunderground v.1.15,2013-02-28 19:52:00,
2013-02-28 14:58:00,44.2,25.2,29.64,NW,319,2.0,10.0,47,0.00,,,0.00,Wunderground v.1.15,2013-02-28 19:58:00,
2013-02-28 15:04:00,45.0,24.9,29.64,South,171,3.0,12.0,45,0.00,,,0.00,Wunderground v.1.15,2013-02-28 20:04:00,
2013-02-28 15:10:00,45.0,24.9,29.64,West,271,4.0,4.0,45,0.00,,,0.00,Wunderground v.1.15,2013-02-28 20:10:00,
2013-02-28 15:16:00,44.9,24.8,29.64,ENE,78,3.0,12.0,45,0.00,,,0.00,Wunderground v.1.15,2013-02-28 20:16:00,
2013-02-28 15:22:00,44.9,25.3,29.64,WSW,254,3.0,12.0,46,0.00,,,0.00,Wunderground v.1.15,2013-02-28 20:22:00,
2013-02-28 15:28:00,44.7,25.7,29.64,WNW,286,2.0,12.0,47,0.00,,,0.00,Wunderground v.1.15,2013-02-28 20:28:00,
2013-02-28 15:34:00,44.8,25.3,29.64,West,267,3.0,7.0,46,0.00,,,0.00,Wunderground v.1.15,2013-02-28 20:34:00,
2013-02-28 15:40:00,44.7,25.2,29.64,NW,323,5.0,5.0,46,0.00,,,0.00,Wunderground v.1.15,2013-02-28 20:40:00,
2013-02-28 15:46:00,44.6,25.1,29.64,SW,234,4.0,12.0,46,0.00,,,0.00,Wunderground v.1.15,2013-02-28 20:46:00,
2013-02-28 15:52:00,44.4,24.9,29.64,West,279,3.0,5.0,46,0.00,,,0.00,Wunderground v.1.15,2013-02-28 20:52:00,
2013-02-28 15:58:00,-999.9,-99.9,-32.77,North,32767,-999.0,12.0,255,-99.99,,,0.00,Wunderground v.1.15,2013-02-28 20:58:00,
2013-02-28 16:04:00,-999.9,-99.9,-32.77,North,32767,-999.0,12.0,255,-99.99,,,0.00,Wunderground v.1.15,2013-02-28 21:04:00,
2013-02-28 16:10:00,-999.9,-99.9,-32.77,North,32767,-999.0,12.0,255,-99.99,,,0.00,Wunderground v.1.15,2013-02-28 21:10:00,
2013-02-28 16:16:00,-999.9,-99.9,-32.77,North,32767,-999.0,12.0,255,-99.99,,,0.00,Wunderground v.1.15,2013-02-28 21:16:00,
2013-02-28 16:22:00,-999.9,-99.9,-32.77,North,32767,-999.0,12.0,255,-99.99,,,0.00,Wunderground v.1.15,2013-02-28 21:22:00,
2013-02-28 16:28:00,-999.9,-99.9,-32.77,North,32767,-999.0,12.0,255,-99.99,,,0.00,Wunderground v.1.15,2013-02-28 21:28:00,
2013-02-28 16:34:00,-999.9,-99.9,-32.77,North,32767,-999.0,12.0,255,-99.99,,,0.00,Wunderground v.1.15,2013-02-28 21:34:00,
2013-02-28 16:40:00,-999.9,-99.9,-32.77,North,32767,-999.0,12.0,255,-99.99,,,0.00,Wunderground v.1.15,2013-02-28 21:40:00,
2013-02-28 16:46:00,-999.9,-99.9,-32.77,North,32767,-999.0,12.0,255,-99.99,,,0.00,Wunderground v.1.15,2013-02-28 21:46:00,
2013-02-28 16:52:00,-999.9,-99.9,-32.77,North,32767,-999.0,12.0,255,-99.99,,,0.00,Wunderground v.1.15,2013-02-28 21:52:00,
2013-02-28 17:00:00,-999.9,-99.9,-32.77,North,32767,-999.0,12.0,255,-99.99,,,0.00,Wunderground v.1.15,2013-02-28 22:00:00,
2013-02-28 17:06:00,-999.9,-99.9,-32.77,North,32767,-999.0,12.0,255,-99.99,,,0.00,Wunderground v.1.15,2013-02-28 22:06:00,
2013-02-28 17:12:00,-999.9,-99.9,-32.77,North,32767,-999.0,12.0,255,-99.99,,,0.00,Wunderground v.1.15,2013-02-28 22:12:00,
2013-02-28 17:18:00,-999.9,-99.9,-32.77,North,32767,-999.0,12.0,255,-99.99,,,0.00,Wunderground v.1.15,2013-02-28 22:18:00,
2013-02-28 17:24:00,-999.9,-99.9,-32.77,North,32767,-999.0,12.0,255,-99.99,,,0.00,Wunderground v.1.15,2013-02-28 22:24:00,
2013-02-28 17:30:00,-999.9,-99.9,-32.77,North,32767,-999.0,12.0,255,-99.99,,,0.00,Wunderground v.1.15,2013-02-28 22:30:00,
2013-02-28 17:36:00,-999.9,-99.9,-32.77,North,32767,-999.0,12.0,255,-99.99,,,0.00,Wunderground v.1.15,2013-02-28 22:36:00,
2013-02-28 17:42:00,-999.9,-99.9,-32.77,North,32767,-999.0,12.0,255,-99.99,,,0.00,Wunderground v.1.15,2013-02-28 22:42:00,
2013-02-28 17:48:00,-999.9,-99.9,-32.77,North,32767,-999.0,12.0,255,-99.99,,,0.00,Wunderground v.1.15,2013-02-28 22:48:00,
2013-02-28 17:54:00,-999.9,-99.9,-32.77,North,32767,-999.0,12.0,255,-99.99,,,0.00,Wunderground v.1.15,2013-02-28 22:54:00,
2013-02-28 18:00:00,-999.9,-99.9,-32.77,North,32767,-999.0,12.0,255,-99.99,,,0.00,Wunderground v.1.15,2013-02-28 23:00:00,
2013-02-28 18:06:00,-999.9,-99.9,-32.77,North,32767,-999.0,12.0,255,-99.99,,,0.00,Wunderground v.1.15,2013-02-28 23:06:00,
2013-02-28 18:12:00,-999.9,-99.9,-32.77,North,32767,-999.0,12.0,255,-99.99,,,0.00,Wunderground v.1.15,2013-02-28 23:12:00,
2013-02-28 18:18:00,-999.9,-99.9,-32.77,North,32767,-999.0,12.0,255,-99.99,,,0.00,Wunderground v.1.15,2013-02-28 23:18:00,
2013-02-28 18:24:00,-999.9,-99.9,-32.77,North,32767,-999.0,12.0,255,-99.99,,,0.00,Wunderground v.1.15,2013-02-28 23:24:00,
2013-02-28 18:30:00,-999.9,-99.9,-32.77,North,32767,-999.0,12.0,255,-99.99,,,0.00,Wunderground v.1.15,2013-02-28 23:30:00,
2013-02-28 18:36:00,-999.9,-99.9,-32.77,North,32767,-999.0,12.0,255,-99.99,,,0.00,Wunderground v.1.15,2013-02-28 23:36:00,
2013-02-28 18:42:00,-999.9,-99.9,-32.77,North,32767,-999.0,12.0,255,-99.99,,,0.00,Wunderground v.1.15,2013-02-28 23:42:00,
2013-02-28 18:48:00,-999.9,-99.9,-32.77,North,32767,-999.0,12.0,255,-99.99,,,0.00,Wunderground v.1.15,2013-02-28 23:48:00,
2013-02-28 18:54:00,-999.9,-99.9,-32.77,North,32767,-999.0,12.0,255,-99.99,,,0.00,Wunderground v.1.15,2013-02-28 23:54:00,
2013-02-28 19:00:00,-999.9,-99.9,-32.77,North,32767,-999.0,12.0,255,-99.99,,,0.00,Wunderground v.1.15,2013-03-01 00:00:00,
2013-02-28 19:06:00,-999.9,-99.9,-32.77,North,32767,-999.0,12.0,255,-99.99,,,0.00,Wunderground v.1.15,2013-03-01 00:06:00,
2013-02-28 19:12:00,-999.9,-99.9,-32.77,North,32767,-999.0,12.0,255,-99.99,,,0.00,Wunderground v.1.15,2013-03-01 00:12:00,
2013-02-28 19:18:00,-999.9,-99.9,-32.77,North,32767,-999.0,12.0,255,-99.99,,,0.00,Wunderground v.1.15,2013-03-01 00:18:00,
2013-02-28 19:24:00,-999.9,-99.9,-32.77,North,32767,-999.0,12.0,255,-99.99,,,0.00,Wunderground v.1.15,2013-03-01 00:24:00,
2013-02-28 19:30:00,-999.9,-99.9,-32.77,North,32767,-999.0,12.0,255,-99.99,,,0.00,Wunderground v.1.15,2013-03-01 00:30:00,
2013-02-28 19:36:00,-999.9,-99.9,-32.77,North,32767,-999.0,12.0,255,-99.99,,,0.00,Wunderground v.1.15,2013-03-01 00:36:00,
2013-02-28 19:42:00,-999.9,-99.9,-32.77,North,32767,-999.0,12.0,255,-99.99,,,0.00,Wunderground v.1.15,2013-03-01 00:42:00,
2013-02-28 19:48:00,-999.9,-99.9,-32.77,North,32767,-999.0,12.0,255,-99.99,,,0.00,Wunderground v.1.15,2013-03-01 00:48:00,
2013-02-28 19:54:00,-999.9,-99.9,-32.77,North,32767,-999.0,12.0,255,-99.99,,,0.00,Wunderground v.1.15,2013-03-01 00:54:00,
2013-02-28 20:00:00,-999.9,-99.9,-32.77,North,32767,-999.0,12.0,255,-99.99,,,0.00,Wunderground v.1.15,2013-03-01 01:00:00,
2013-02-28 20:06:00,-999.9,-99.9,-32.77,North,32767,-999.0,12.0,255,-99.99,,,0.00,Wunderground v.1.15,2013-03-01 01:06:00,
2013-02-28 20:12:00,-999.9,-99.9,-32.77,North,32767,-999.0,12.0,255,-99.99,,,0.00,Wunderground v.1.15,2013-03-01 01:12:00,
2013-02-28 20:18:00,-999.9,-99.9,-32.77,North,32767,-999.0,12.0,255,-99.99,,,0.00,Wunderground v.1.15,2013-03-01 01:18:00,
2013-02-28 20:24:00,-999.9,-99.9,-32.77,North,32767,-999.0,12.0,255,-99.99,,,0.00,Wunderground v.1.15,2013-03-01 01:24:00,
2013-02-28 20:30:00,-999.9,-99.9,-32.77,North,32767,-999.0,12.0,255,-99.99,,,0.00,Wunderground v.1.15,2013-03-01 01:30:00,
2013-02-28 20:36:00,-999.9,-99.9,-32.77,North,32767,-999.0,12.0,255,-99.99,,,0.00,Wunderground v.1.15,2013-03-01 01:36:00,
2013-02-28 20:42:00,-999.9,-99.9,-32.77,North,32767,-999.0,12.0,255,-99.99,,,0.00,Wunderground v.1.15,2013-03-01 01:42:00,
2013-02-28 20:48:00,-999.9,-99.9,-32.77,North,32767,-999.0,12.0,255,-99.99,,,0.00,Wunderground v.1.15,2013-03-01 01:48:00,
2013-02-28 20:54:00,-999.9,-99.9,-32.77,North,32767,-999.0,12.0,255,-99.99,,,0.00,Wunderground v.1.15,2013-03-01 01:54:00,
2013-02-28 21:00:00,-999.9,-99.9,-32.77,North,32767,-999.0,12.0,255,-99.99,,,0.00,Wunderground v.1.15,2013-03-01 02:00:00,
2013-02-28 21:06:00,-999.9,-99.9,-32.77,North,32767,-999.0,12.0,255,-99.99,,,0.00,Wunderground v.1.15,2013-03-01 02:06:00,
2013-02-28 21:12:00,-999.9,-99.9,-32.77,North,32767,-999.0,12.0,255,-99.99,,,0.00,Wunderground v.1.15,2013-03-01 02:12:00,
2013-02-28 21:18:00,-999.9,-99.9,-32.77,North,32767,-999.0,12.0,255,-99.99,,,0.00,Wunderground v.1.15,2013-03-01 02:18:00,
2013-02-28 21:24:00,-999.9,-99.9,-32.77,North,32767,-999.0,12.0,255,-99.99,,,0.00,Wunderground v.1.15,2013-03-01 02:24:00,
2013-02-28 21:30:00,-999.9,-99.9,-32.77,North,32767,-999.0,12.0,255,-99.99,,,0.00,Wunderground v.1.15,2013-03-01 02:30:00,
2013-02-28 21:36:00,-999.9,-99.9,-32.77,North,32767,-999.0,12.0,255,-99.99,,,0.00,Wunderground v.1.15,2013-03-01 02:36:00,
2013-02-28 21:42:00,-999.9,-99.9,-32.77,North,32767,-999.0,12.0,255,-99.99,,,0.00,Wunderground v.1.15,2013-03-01 02:42:00,
2013-02-28 21:48:00,-999.9,-99.9,-32.77,North,32767,-999.0,12.0,255,-99.99,,,0.00,Wunderground v.1.15,2013-03-01 02:48:00,
2013-02-28 21:54:00,-999.9,-99.9,-32.77,North,32767,-999.0,12.0,255,-99.99,,,0.00,Wunderground v.1.15,2013-03-01 02:54:00,
2013-02-28 22:00:00,-999.9,-99.9,-32.77,North,32767,-999.0,12.0,255,-99.99,,,0.00,Wunderground v.1.15,2013-03-01 03:00:00,
2013-02-28 22:06:00,-999.9,-99.9,-32.77,North,32767,-999.0,12.0,255,-99.99,,,0.00,Wunderground v.1.15,2013-03-01 03:06:00,
2013-02-28 22:12:00,-999.9,-99.9,-32.77,North,32767,-999.0,12.0,255,-99.99,,,0.00,Wunderground v.1.15,2013-03-01 03:12:00,
2013-02-28 22:18:00,-999.9,-99.9,-32.77,North,32767,-999.0,12.0,255,-99.99,,,0.00,Wunderground v.1.15,2013-03-01 03:18:00,
2013-02-28 22:24:00,-999.9,-99.9,-32.77,North,32767,-999.0,12.0,255,-99.99,,,0.00,Wunderground v.1.15,2013-03-01 03:24:00,
2013-02-28 22:30:00,-999.9,-99.9,-32.77,North,32767,-999.0,12.0,255,-99.99,,,0.00,Wunderground v.1.15,2013-03-01 03:30:00,
2013-02-28 22:36:00,-999.9,-99.9,-32.77,North,32767,-999.0,12.0,255,-99.99,,,0.00,Wunderground v.1.15,2013-03-01 03:36:00,
2013-02-28 22:42:00,-999.9,-99.9,-32.77,North,32767,-999.0,12.0,255,-99.99,,,0.00,Wunderground v.1.15,2013-03-01 03:42:00,
2013-02-28 22:48:00,-999.9,-99.9,-32.77,North,32767,-999.0,12.0,255,-99.99,,,0.00,Wunderground v.1.15,2013-03-01 03:48:00,
2013-02-28 22:54:00,-999.9,-99.9,-32.77,North,32767,-999.0,12.0,255,-99.99,,,0.00,Wunderground v.1.15,2013-03-01 03:54:00,
2013-02-28 23:00:00,-999.9,-99.9,-32.77,North,32767,-999.0,12.0,255,-99.99,,,0.00,Wunderground v.1.15,2013-03-01 04:00:00,
2013-02-28 23:06:00,-999.9,-99.9,-32.77,North,32767,-999.0,12.0,255,-99.99,,,0.00,Wunderground v.1.15,2013-03-01 04:06:00,
2013-02-28 23:12:00,-999.9,-99.9,-32.77,North,32767,-999.0,12.0,255,-99.99,,,0.00,Wunderground v.1.15,2013-03-01 04:12:00,
2013-02-28 23:18:00,-999.9,-99.9,-32.77,North,32767,-999.0,12.0,255,-99.99,,,0.00,Wunderground v.1.15,2013-03-01 04:18:00,
2013-02-28 23:24:00,-999.9,-99.9,-32.77,North,32767,-999.0,12.0,255,-99.99,,,0.00,Wunderground v.1.15,2013-03-01 04:24:00,
2013-02-28 23:30:00,-999.9,-99.9,-32.77,North,32767,-999.0,12.0,255,-99.99,,,0.00,Wunderground v.1.15,2013-03-01 04:30:00,
2013-02-28 23:36:00,-999.9,-99.9,-32.77,North,32767,-999.0,12.0,255,-99.99,,,0.00,Wunderground v.1.15,2013-03-01 04:36:00,
2013-02-28 23:42:00,-999.9,-99.9,-32.77,North,32767,-999.0,12.0,255,-99.99,,,0.00,Wunderground v.1.15,2013-03-01 04:42:00,
2013-02-28 23:48:00,-999.9,-99.9,-32.77,North,32767,-999.0,12.0,255,-99.99,,,0.00,Wunderground v.1.15,2013-03-01 04:48:00,
2013-02-28 23:54:00,-999.9,-99.9,-32.77,North,32767,-999.0,12.0,255,-99.99,,,0.00,Wunderground v.1.15,2013-03-01 04:54:00,